SCP
0 0 0 0 0 0 0 0 0 0 0 0 0 0 0 0 0 0 0 0 0 0
0 0 0 0 0 0 0 0 0 0 0 0 0 0 0 0 0 0 0 0 0 0
0 0 0 0 0 0 0 0 0 0 0 0 0 0 0 0 0 0 0 0 0 0
0 0 0 0 0 0 0 0 0 0 0 0 0 0 0 0 0 0 0 0 0 0
0 0 0 0 0 0 0 0 0 0 0 0 0 0 0 0 0 0 0 0 0 0
0 0 0 0 0 0 0 0 0 0 0 0 0 0 0 0 0 0 0 0 0 0
0 0 0 0 0 0 0 0 0 0 0 0 0 0 0 0 0 0 0 0 0 0
0 0 0 0 0 0 0 0 0 0 0 0 0 0 0 0 0 0 0 0 0 0
0 0 0 0 0 0 0 0 0 0 0 0 0 0 0 0 0 0 0 0 0 0
0 0 0 0 0 0 0 0 0 0 0 0 0 0 0 0 0 0 0 0 0 0
0 0 0 0 0 0 0 0 0 0 0 0 0 0 0 0 0 0 0 0 0 0
0 0 0 0 0 0 0 0 0 0 0 0 0 0 0 0 0 0 0 0 0 0
0 0 0 0 0 0 0 0 0 0 0 0 0 0 0 0 0 0 0 0 0 0
0 0 0 0 0 0 0 0 0 0 0 0 0 0 0 0 0 0 0 0 0 0
Wind_Speed_500mb
33 32 32 31 32 33 35 35 35 33 32 30 28 27 27 24 24 28 29 25 28 33
34 34 34 34 34 35 36 35 32 31 30 29 29 31 28 27 29 28 22 26 30 33
32 33 33 33 32 32 29 28 25 25 27 28 32 29 30 28 22 18 20 23 27 31
28 31 32 28 26 27 25 23 24 26 28 30 27 28 24 19 12 12 15 19 23 25
25 25 24 24 23 22 23 26 27 29 27 23 25 22 16 10 6 5 8 12 16 19
22 23 23 22 22 24 24 24 25 23 22 24 20 14 11 8 10 12 14 15 15 16
23 23 22 23 25 27 26 25 23 22 23 20 16 15 13 14 15 17 17 19 18 17
27 23 25 27 29 29 27 24 24 23 20 19 19 19 19 21 23 23 22 24 24 22
32 30 28 29 32 33 27 24 26 24 23 26 24 25 28 29 29 29 29 27 28 28
36 37 36 38 40 36 34 34 34 32 34 33 32 33 34 35 38 37 35 35 34 32
36 40 41 45 47 45 44 45 45 44 43 44 41 40 42 43 46 46 43 40 39 39
37 41 43 45 48 50 54 55 56 55 54 56 53 47 49 50 53 53 51 46 45 44
34 38 42 45 48 51 54 58 61 64 64 64 64 60 57 57 58 61 61 53 51 48
32 35 36 40 42 45 49 54 57 61 63 65 67 67 65 62 65 66 67 64 61 51
Wind_Direction_500mb
278 277 275 272 269 267 267 267 265 262 261 259 262 264 266 272 277 274 275 294 298 297
277 277 272 268 268 268 268 266 261 257 257 256 260 261 267 274 271 274 294 298 300 295
275 273 271 271 270 267 264 259 260 262 261 260 259 263 266 267 270 290 298 302 297 292
277 276 276 269 267 266 265 271 266 262 259 253 257 257 259 258 273 294 306 304 302 301
278 276 275 275 274 281 283 274 261 251 251 251 247 243 238 238 259 287 321 330 330 324
282 279 276 279 289 289 280 266 252 250 250 242 233 220 199 215 247 269 286 308 333 338
281 280 281 283 282 275 269 261 250 243 237 236 223 207 223 244 256 268 282 293 300 303
276 280 281 275 270 265 258 255 253 244 237 230 230 236 244 252 259 267 275 282 286 291
270 269 266 265 263 260 257 255 250 245 241 244 248 251 256 260 264 268 273 276 277 281
264 265 264 262 261 262 260 255 254 253 254 255 255 258 262 266 269 270 271 273 275 275
276 272 267 265 266 266 264 261 259 258 259 262 259 260 264 268 270 270 270 271 273 273
282 278 277 275 271 268 266 264 264 263 261 262 264 264 266 269 269 270 270 270 271 272
291 287 285 282 278 274 270 268 266 265 264 264 266 266 266 267 269 269 270 270 269 269
304 300 296 291 289 285 279 275 272 271 269 268 267 267 267 265 266 268 271 271 270 267
Wind_Speed_850mb
33 32 32 31 32 33 35 35 35 33 32 30 28 27 27 24 24 28 29 25 28 33
34 34 34 34 34 35 36 35 32 31 30 29 29 31 28 27 29 28 22 26 30 33
32 33 33 33 32 32 29 28 25 25 27 28 32 29 30 28 22 18 20 23 27 31
28 31 32 28 26 27 25 23 24 26 28 30 27 28 24 19 12 12 15 19 23 25
25 25 24 24 23 22 23 26 27 29 27 23 25 22 16 10 6 5 8 12 16 19
22 23 23 22 22 24 24 24 25 23 22 24 20 14 11 8 10 12 14 15 15 16
23 23 22 23 25 27 26 25 23 22 23 20 16 15 13 14 15 17 17 19 18 17
27 23 25 27 29 29 27 24 24 23 20 19 19 19 19 21 23 23 22 24 24 22
32 30 28 29 32 33 27 24 26 24 23 26 24 25 28 29 29 29 29 27 28 28
36 37 36 38 40 36 34 34 34 32 34 33 32 33 34 35 38 37 35 35 34 32
36 40 41 45 47 45 44 45 45 44 43 44 41 40 42 43 46 46 43 40 39 39
37 41 43 45 48 50 54 55 56 55 54 56 53 47 49 50 53 53 51 46 45 44
34 38 42 45 48 51 54 58 61 64 64 64 64 60 57 57 58 61 61 53 51 48
32 35 36 40 42 45 49 54 57 61 63 65 67 67 65 62 65 66 67 64 61 51
Wind_Direction_850mb
278 277 275 272 269 267 267 267 265 262 261 259 262 264 266 272 277 274 275 294 298 297
277 277 272 268 268 268 268 266 261 257 257 256 260 261 267 274 271 274 294 298 300 295
275 273 271 271 270 267 264 259 260 262 261 260 259 263 266 267 270 290 298 302 297 292
277 276 276 269 267 266 265 271 266 262 259 253 257 257 259 258 273 294 306 304 302 301
278 276 275 275 274 281 283 274 261 251 251 251 247 243 238 238 259 287 321 330 330 324
282 279 276 279 289 289 280 266 252 250 250 242 233 220 199 215 247 269 286 308 333 338
281 280 281 283 282 275 269 261 250 243 237 236 223 207 223 244 256 268 282 293 300 303
276 280 281 275 270 265 258 255 253 244 237 230 230 236 244 252 259 267 275 282 286 291
270 269 266 265 263 260 257 255 250 245 241 244 248 251 256 260 264 268 273 276 277 281
264 265 264 262 261 262 260 255 254 253 254 255 255 258 262 266 269 270 271 273 275 275
276 272 267 265 266 266 264 261 259 258 259 262 259 260 264 268 270 270 270 271 273 273
282 278 277 275 271 268 266 264 264 263 261 262 264 264 266 269 269 270 270 270 271 272
291 287 285 282 278 274 270 268 266 265 264 264 266 266 266 267 269 269 270 270 269 269
304 300 296 291 289 285 279 275 272 271 269 268 267 267 267 265 266 268 271 271 270 267